This demonstration page uses our WeatherBlox Daily Observations layout. Learn more.

Left ArrowRight Arrow

Hourly Observations for October 11, 2021

Temp ( °F °C ) Dew Point ( °F °C ) Humidity (%) Winds ( mph kmh ) Pressure ( in mb ) Visibility ( mi km ) Precip ( " mm )
12:53 am 00:53 Clear 53 11.7 38 3.3 57 57 WNW 5 7 29.85 1011 10 16 N/A
1:53 am 01:53 Clear 50 10 37 2.8 61 61 WNW 3 6 29.85 1011 10 16 N/A
2:53 am 02:53 Clear 49 9.4 36 2.2 61 61 NNW 6 9 29.85 1011 10 16 N/A
3:53 am 03:53 Clear 49 9.4 37 2.8 64 64 NNW 5 7 29.83 1010 10 16 N/A
4:53 am 04:53 Clear 46 7.8 36 2.2 68 68 NW 3 6 29.84 1011 10 16 N/A
5:53 am 05:53 Clear 45 7.2 35 1.7 68 68 S 7 11 29.86 1011 10 16 N/A
6:53 am 06:53 Clear 42 5.6 33 0.6 71 71 NNW 5 7 29.86 1011 10 16 N/A
7:53 am 07:53 Clear 43 6.1 34 1.1 71 71 N N/A 29.89 1012 10 16 N/A
8:53 am 08:53 Sunny 48 8.9 36 2.2 63 63 E 3 6 29.90 1013 10 16 N/A
9:53 am 09:53 Sunny 57 13.9 40 4.4 53 53 ESE 5 7 29.90 1013 10 16 N/A
10:53 am 10:53 Sunny 64 17.8 40 4.4 41 41 SE 8 13 29.88 1012 10 16 N/A
11:53 am 11:53 Sunny 71 21.7 39 3.9 31 31 SSE 9 15 29.87 1011 10 16 N/A
12:53 pm 12:53 Sunny 76 24.4 36 2.2 23 23 S 9 15 29.84 1010 10 16 N/A
1:53 pm 13:53 Sunny 81 27.2 30 -1.1 16 16 S 9 15 29.79 1009 10 16 N/A
2:53 pm 14:53 Sunny 82 27.8 29 -1.7 14 14 SSE 12 19 29.74 1007 10 16 N/A
3:53 pm 15:53 Sunny 84 28.9 32 undefined 15 15 S 8 13 29.70 1006 10 16 N/A
4:53 pm 16:53 Sunny 86 30 31 -0.6 14 14 SSE 12 19 29.67 1005 10 16 N/A
5:53 pm 17:53 Sunny 85 29.4 32 undefined 15 15 ESE 16 26 29.65 1004 10 16 N/A
6:53 pm 18:53 Sunny 82 27.8 33 0.6 17 17 SE 21 33 29.66 1005 10 16 N/A
7:53 pm 19:53 Clear 78 25.6 33 0.6 19 19 SE 18 30 29.67 1005 10 16 N/A
8:53 pm 20:53 Clear 76 24.4 35 1.7 23 23 SE 17 28 29.68 1005 10 16 N/A
9:53 pm 21:53 Clear 73 22.8 35 1.7 25 25 SE 15 24 29.67 1005 10 16 N/A
10:53 pm 22:53 Mostly Clear 72 22.2 35 1.7 26 26 SE 15 24 29.66 1004 10 16 N/A
11:53 pm 23:53 Mostly Clear 70 21.1 36 2.2 29 29 SE 14 22 29.64 1004 10 16 N/A

Powered by AerisWeather